Regional Weather Roundup
Issued by NWS Memphis, TN

Home | Current Version | Previous Version | Text Only | Print | Product List | Glossary On
Versions: 1 2 3 4 5 6 7 8 9 10 11 12 13 14 15 16 17 18 19 20 21 22 23 24 25 26 27 28 29 30 31 32 33 34 35 36 37 38 39 40 41 42 43 44 45 46 47 48 49 50
000
ASUS44 KMEG 221610
RWRMEG
MEMPHIS CWA HOURLY WEATHER ROUNDUP
NATIONAL WEATHER SERVICE MEMPHIS TN
1100 AM CDT THU JUN 22 2017

...WEST TENNESSEE...

CITY           SKY/WX    TMP DP  RH WIND       PRES   REMARKS
MEMPHIS INTL   CLOUDY    79  76  90 S12       29.85S
NWS MEMPHIS      N/A     77 N/A N/A MISG        N/A
JACKSON        CLOUDY    78  74  87 S8        29.89F
COVINGTON      CLOUDY    75  75 100 SE8       29.87S FOG
BOLIVAR        PTSUNNY   77  73  88 SE8G15    29.88F FOG
LEXINGTON      CLOUDY    75  73  94 VRB7G13   29.92F
SELMER         CLOUDY    75  73  94 SE6       29.91S
SAVANNAH       CLOUDY    75  73  94 VRB7      29.91S
UNION CITY     CLOUDY    77  73  88 SE10G17   29.89S
PARIS          PTSUNNY   73  72  94 SE8       29.92F
HUNTINGDON     CLOUDY    75  73  94 SE7       29.91F FOG


...EASTERN ARKANSAS...

CITY           SKY/WX    TMP DP  RH WIND       PRES   REMARKS
JONESBORO      LGT RAIN  77  76  96 SE10      29.84S
WEST MEMPHIS   CLOUDY    81  76  84 SE18G24   29.82F
BATESVILLE     CLOUDY    79  73  83 SE8       29.82F
WALNUT RIDGE   CLOUDY    79  72  78 SE7       29.84F
BLYTHEVILLE    HVY RAIN  78  75  90 S15G21    29.87S
NW BLYTHEVILLE CLOUDY    81  73  78 SE12G23   29.86S
SEARCY         CLOUDY    82  76  81 SE9       29.82F
STUTTGART      CLOUDY   N/A N/A N/A SE13G21   29.80S
PINE BLUFF     LGT RAIN  83  75  77 SE15      29.77F HX  90
MONTICELLO     PTSUNNY   83  76  79 SE9       29.76F HX  91


...NORTH MISSISSIPPI...

CITY           SKY/WX    TMP DP  RH WIND       PRES   REMARKS
TUPELO         CLOUDY    79  73  82 SE10G17   29.88S
OXFORD         CLOUDY    81  73  78 S9        29.87F
BATESVILLE     MOSUNNY   84  73  70 S13G20    29.84F HX  90
OLIVE BRANCH   CLOUDY   N/A N/A N/A S14       29.85F
TUNICA           N/A     81  73  78 SE10      29.83F
CLARKSDALE       N/A     84  79  84 SE13      29.82S HX  96
CORINTH        DRIZZLE   77  73  88 SE8G15    29.90S
GREENWOOD      MOSUNNY   86  74  67 S16G26    29.81F HX  94
COLUMBUS       PTSUNNY   79  79 100 S18       29.88F
STARKVILLE     PTSUNNY   82  75  78 SE16G22   29.89S
GOLDEN TRIANGL CLOUDY    81  72  74 SE16G23   29.86R


...SOUTHEAST MISSOURI...

CITY           SKY/WX    TMP DP  RH WIND       PRES   REMARKS
KENNETT        CLOUDY    79  75  89 SE10G17   29.85S
MALDEN         CLOUDY    77  73  88 S10       29.87F
WEST PLAINS    CLOUDY    75  71  87 SE9       29.88F
POPLAR BLUFF   CLOUDY    76  73  91 SE9       29.86F
CAPE GIRARDEAU LGT RAIN  74  71  91 SE10      29.88F FOG


...NORTHWEST ALABAMA...

CITY           SKY/WX    TMP DP  RH WIND       PRES   REMARKS
MUSCLE SHOALS  CLOUDY    78  73  84 SE13      29.95S


...MIDDLE TENNESSEE...

CITY           SKY/WX    TMP DP  RH WIND       PRES   REMARKS
NASHVILLE      LGT RAIN  74  71  91 SE12      30.00F FOG
CLARKSVILLE    RAIN      72  69  90 S8        29.97F FOG
COLUMBIA       CLOUDY    73  73 100 SE7G13    29.95S


...WESTERN KENTUCKY...

CITY           SKY/WX    TMP DP  RH WIND       PRES   REMARKS
PADUCAH        PTSUNNY   79  70  74 S9G22     29.90F
FORT CAMPBELL  RAIN      72  72 100 SE13      29.96F FOG


...CENTRAL ARKANSAS...

CITY           SKY/WX    TMP DP  RH WIND       PRES   REMARKS
LITTLE ROCK    CLOUDY    79  77  94 E9        29.78F


SKY/WX REPORTED AS FAIR MEANS FEW OR NO CLOUDS BELOW
12 THOUSAND FEET.





USA.gov is the U.S. government's official web portal to all federal, state and local government web resources and services.